Home > Weather > Oran > Past weeks

Flag for Algeria Past Weather in Oran, Algeria — Yesterday and Last 2 Weeks

Now
73 °F

Passing clouds.


Feels Like: 72 °F
Forecast: 70 / 82 °F
Wind: 8 mph from North

Location: Oran / Es Senia

Current Time: Jun 29, 2016 at 9:10:52 PM

Latest Report: Jun 29, 2016 at 8:30 PM


Visibility: N/A

Pressure: 29.98 "Hg

Humidity: 89%

Dew Point: 70 °F

Location of OranLocation

Past Weather in Oran — Graph

°F

Oran Temperature Yesterday

Maximum temperature yesterday: 79 °F (at 10:00 AM)
Minimum temperature yesterday: 72 °F (at 2:30 AM)
Average temperature yesterday: 74 °F

High & Low Weather Summary for the Past Weeks

 TemperatureHumidityPressure
High93 °F (Jun 26, 6:00 PM)100% (Jun 24, 4:00 AM)30.24 "Hg (Jun 24, 4:00 AM)
Low57 °F (Jun 18, 5:30 AM)24% (Jun 26, 6:00 PM)29.71 "Hg (Jun 15, 3:00 PM)
Average74 °F66%30.01 "Hg
* Reported Jun 14 8:00 PM — Jun 29 8:00 PM, Oran, Weather by CustomWeather, © 2016

Note: Actual official high and low records may vary slightly from our data, if they occured in-between our weather recording intervals... More about our weather records

Advertising

Oran Weather History for the Previous 24 Hours

Scroll right to see more
 ConditionsComfort  
Time TempWeatherWind HumidityBarometerVisibility
8:00 PM
Wed, Jun 29
73 °FPassing clouds.16 mph89%29.95 "HgN/A
7:30 PM73 °FPassing clouds.16 mph89%29.92 "HgN/A
7:00 PM75 °FPassing clouds.14 mph83%29.92 "HgN/A
6:30 PM75 °FPassing clouds.14 mph78%29.92 "HgN/A
6:00 PM77 °FPassing clouds.12 mph74%29.89 "HgN/A
5:30 PM77 °FPassing clouds.14 mph79%29.92 "HgN/A
5:00 PM79 °FPassing clouds.16 mph74%29.92 "HgN/A
4:30 PM81 °FPassing clouds.14 mph62%29.92 "HgN/A
4:00 PM81 °FPassing clouds.16 mph70%29.92 "HgN/A
3:30 PM79 °FPassing clouds.16 mph74%29.92 "HgN/A
3:00 PM79 °FPassing clouds.23 mph74%29.92 "HgN/A
2:30 PM79 °FPassing clouds.23 mph74%29.92 "HgN/A
2:00 PM79 °FPassing clouds.21 mph74%29.92 "HgN/A
1:30 PM81 °FPassing clouds.18 mph79%29.92 "HgN/A
1:00 PM81 °FPassing clouds.18 mph79%29.92 "HgN/A
12:30 PM82 °FSunny.14 mph66%29.95 "Hg10 mi
12:00 PM86 °FSunny.7 mph59%29.95 "Hg10 mi
11:30 AM84 °FSunny.7 mph62%29.95 "Hg10 mi
11:00 AM82 °FSunny.7 mph66%29.95 "Hg10 mi
10:30 AM81 °FSunny.9 mph66%29.95 "Hg10 mi
10:00 AM77 °FSunny.12 mph74%29.95 "Hg10 mi
9:30 AM77 °FSunny.9 mph74%29.95 "Hg10 mi
9:00 AM75 °FSunny.12 mph78%29.95 "Hg10 mi
8:30 AM73 °FClear.14 mph89%29.95 "Hg6 mi
8:00 AM72 °FClear.13 mph88%29.95 "Hg5 mi
7:30 AM72 °FScattered clouds.13 mph94%29.95 "Hg5 mi
7:00 AM72 °FScattered clouds.5 mph88%29.95 "Hg5 mi
6:30 AM70 °FPassing clouds.2 mph94%29.92 "Hg5 mi
6:00 AM70 °FPassing clouds.7 mph88%29.92 "Hg5 mi
5:30 AM70 °FPassing clouds.8 mph94%29.92 "Hg4 mi
5:00 AM70 °FPassing clouds.3 mph94%29.92 "Hg5 mi
4:30 AM72 °FPassing clouds.6 mph83%29.92 "Hg5 mi
4:00 AM75 °FPassing clouds.9 mph74%29.89 "Hg5 mi
3:00 AM79 °FPassing clouds.9 mph58%29.86 "Hg5 mi
2:30 AM79 °FPassing clouds.5 mph58%29.86 "Hg5 mi
2:00 AM75 °FPassing clouds.5 mph69%29.86 "Hg5 mi
1:30 AM75 °FPassing clouds.12 mph69%29.89 "Hg5 mi
1:00 AM77 °FPassing clouds.12 mph69%29.89 "Hg5 mi
12:30 AM77 °FPassing clouds.16 mph61%29.92 "Hg5 mi
12:00 AM77 °FPassing clouds.15 mph61%29.92 "Hg5 mi
11:30 PM
Tue, Jun 28
75 °FPassing clouds.16 mph74%29.92 "Hg5 mi
11:00 PM75 °FPassing clouds.15 mph74%29.95 "Hg5 mi
10:30 PM75 °FPassing clouds.14 mph78%29.95 "Hg5 mi
10:00 PM73 °FLight rain. Passing clouds.15 mph83%29.98 "Hg5 mi
9:00 PM72 °FLight rain. Passing clouds.13 mph94%29.92 "Hg3 mi
Weather by CustomWeather, © 2016

See weather overviewHow to use our weather pages